[[{"header":{"parameterUnit":"m.s-1","parameterCategory":1,"la1":30.2991,"la2":30.254,"lo1":-89.0895,"lo2":-89.0444,"dy":0.0017,"dx":0.0017,"nx":28,"ny":28,"refTime":"2025-08-03T09:00:00:Z","depth":0,"parameterNumber":2,"parameterNumberName":"U-component_of_WINDS"},"data":[0,0,0,0,0,0,0,0,0,0,0,0,0,0,0,0,0,0,0,0,0,0,0,0,0,0,0,0,0,0,0,0,0,0,0,0,0,0,0,0,0,0,0,0,0,0,0,0,0,0,0,0,0,0,0,0,0,0,1.1384,1.1385,0,1.1471,1.1472,1.1473,1.1499,1.1498,1.1498,1.1497,1.1585,1.1588,1.1591,0,0,0,0,0,0,0,0,0,0,0,0,0,1.124,1.1242,1.1384,1.1385,1.1386,1.1471,1.1472,1.1473,1.1499,1.1498,1.1498,1.1497,1.1585,1.1588,1.1591,0,0,0,0,0,0,0,0,0,0,0,0,0,1.1312,1.1243,1.1384,1.1409,1.1412,1.147,1.1472,1.1473,1.1499,1.1498,1.1497,1.1497,1.1584,1.1588,1.1592,1.1631,0,0,1.1604,1.1606,0,0,0,0,0,0,0,0,1.1308,1.1317,1.1404,1.1407,1.1411,1.1473,1.1453,1.1526,1.1499,1.1466,1.1497,1.1496,1.1549,1.1556,1.1573,1.1635,1.1638,1.1605,1.1607,1.1609,1.161,0,0,0,0,0,0,0,1.1303,1.1314,1.1418,1.1406,1.141,1.1416,1.1425,1.1467,1.151,1.1469,1.1471,1.1481,1.155,1.1569,1.1576,1.164,1.1605,1.1608,1.1611,1.1612,1.1737,1.1738,0,0,0,0,0,0,1.1294,1.1309,1.1416,1.1421,1.1357,1.1419,1.143,1.1454,1.151,1.1517,1.1481,1.1482,1.1562,1.1571,1.1579,1.1628,1.1609,1.1613,1.1615,1.1737,1.1738,1.1738,0,0,0,0,0,0,1.129,1.1303,1.1412,1.1366,1.138,1.1422,1.1449,1.1456,1.1475,1.1519,1.1527,1.1493,1.1562,1.1573,1.1617,1.1631,1.1615,1.1618,1.1736,1.1737,1.1738,1.1726,0,0,0,0,0,0,1.1286,1.1302,1.1317,1.1366,1.1382,1.1449,1.145,1.1458,1.1482,1.1483,1.1532,1.1539,1.1563,1.1611,1.1622,1.1637,1.1622,1.1735,1.1736,1.1738,1.1725,1.1727,1.1728,0,0,0,0,0,1.1281,1.131,1.1318,1.133,1.1403,1.145,1.146,1.1486,1.1483,1.1499,1.1527,1.1538,1.1628,1.1615,1.1627,1.1644,1.1734,1.1736,1.1737,1.1725,1.1727,1.1728,0,0,0,0,0,0,1.1261,1.1317,1.1326,1.1372,1.1406,1.1454,1.1475,1.1487,1.1523,1.1522,1.1554,1.1564,1.1607,1.163,1.1615,1.1685,1.1681,1.1686,1.1668,1.167,1.1671,1.1664,1.1625,0,0,0,0,0,1.1262,1.1296,1.1343,1.1379,1.1396,1.1432,1.1454,1.1471,1.1508,1.1523,1.1554,1.1589,1.1626,1.1649,1.1685,1.1729,1.174,1.1746,1.1748,1.1748,1.1752,1.1777,1.178,1.1745,1.1745,1.1745,0,0,1.1264,1.1299,1.1319,1.1376,1.1405,1.1439,1.1444,1.1481,1.1506,1.1528,1.1572,1.1597,1.1638,1.1682,1.1703,1.1703,1.1764,1.1751,1.1751,1.1754,1.1779,1.1782,1.1785,1.1746,1.1746,1.1745,0,0,1.1286,1.1316,1.1349,1.1378,1.1421,1.1445,1.1453,1.15,1.1517,1.1562,1.1579,1.161,1.1672,1.1701,1.1723,1.1756,1.1767,1.1767,1.1773,1.1797,1.18,1.1803,1.1814,1.1818,1.177,1.177,1.177,0,1.1283,1.1336,1.1364,1.14,1.1424,1.1446,1.148,1.1506,1.1559,1.1575,1.1574,1.1652,1.1682,1.1733,1.1741,1.1759,1.1769,1.1761,1.1797,1.18,1.1803,1.1814,1.1819,1.177,1.177,1.177,1.177,0,1.133,1.1367,1.1388,1.1439,1.1466,1.15,1.1533,1.1557,1.1573,1.1597,1.1642,1.1678,1.1721,1.1735,1.175,1.1789,1.1787,1.1791,1.1789,1.1806,1.1817,1.1821,1.1769,1.177,1.177,1.177,0,0,1.1341,1.1407,1.1415,1.1438,1.1488,1.1516,1.1552,1.1594,1.1614,1.165,1.168,1.1732,1.1737,1.1762,1.1781,1.1802,1.1825,1.1804,1.1805,1.1806,1.1869,1.1865,1.187,1.1833,1.1834,1.1835,1.1866,0,1.1368,1.1433,1.1459,1.1511,1.1545,1.1566,1.1597,1.1631,1.1654,1.1686,1.1712,1.1749,1.1752,1.1768,1.1789,1.1818,1.1838,1.1816,1.1861,1.1862,1.1849,1.1876,1.1872,1.1899,1.187,1.1871,1.1872,0,1.1409,1.1445,1.15,1.1546,1.1561,1.1588,1.163,1.166,1.1699,1.1715,1.1744,1.1761,1.1799,1.1794,1.1846,1.183,1.1851,1.1867,1.1869,1.1874,1.1868,1.1881,1.1909,1.1913,1.1879,1.1878,1.1878,0,1.1411,1.1474,1.1515,1.1534,1.1588,1.1607,1.1631,1.1669,1.1693,1.1729,1.1745,1.1785,1.1807,1.1837,1.1865,1.1859,1.1915,1.1912,1.1928,1.1928,1.1939,1.1937,1.197,1.1952,1.1952,1.1952,1.1952,0,1.1438,1.1471,1.1516,1.1541,1.1578,1.1609,1.1645,1.167,1.1704,1.1734,1.1755,1.1783,1.1818,1.1851,1.1873,1.1913,1.1922,1.1936,1.1941,1.1934,1.1932,1.1947,1.1946,1.1953,1.1953,1.1953,1.1953,0,1.1446,1.1478,1.1524,1.1572,1.1585,1.161,1.1651,1.1676,1.1701,1.1739,1.175,1.1789,1.1828,1.1859,1.191,1.1925,1.1967,1.1973,1.1954,1.1956,1.1971,1.1969,1.2013,1.2021,1.1999,1.1999,1.1999,0,1.1461,1.1487,1.1538,1.156,1.1583,1.1618,1.1643,1.1674,1.1699,1.1745,1.1765,1.1806,1.184,1.1902,1.1934,1.1974,1.1981,1.1994,1.1987,1.1978,1.198,1.1978,1.1981,1.1994,1.1994,1.1994,1.1994,0,1.1485,1.1499,1.1534,1.1575,1.1604,1.1637,1.1671,1.1688,1.1725,1.1752,1.1793,1.1819,1.1872,1.1912,1.1954,1.1979,1.1993,1.1996,1.2002,1.1994,1.1982,1.1988,1.1955,1.1995,1.1995,1.1995,1.1995,1.1995,1.1496,1.152,1.156,1.1598,1.1627,1.1659,1.1684,1.1713,1.1747,1.1792,1.1809,1.185,1.1889,1.1947,1.1972,1.2005,1.2006,1.2014,1.2016,1.2018,1.2017,1.1977,1.2013,1.2013,1.2013,1.2013,1.2013,0,1.1521,1.1547,1.1582,1.1629,1.1659,1.1671,1.1709,1.1733,1.1769,1.1804,1.1838,1.1884,1.1923,1.1959,1.2,1.2019,1.2027,1.2029,1.2028,1.2033,1.2014,1.2004,1.2022,1.2022,1.2022,1.2022,1.2022,1.2022,1.1537,1.1577,1.1597,1.1652,1.1679,1.172,1.174,1.1769,1.1797,1.1848,1.1881,1.1904,1.194,1.1983,1.202,1.2029,1.2043,1.2044,1.2055,1.2036,1.2034,1.2033,1.2024,1.2046,1.2046,1.2071,1.2072,1.2072]},{"header":{"parameterUnit":"m.s-1","parameterCategory":1,"la1":30.2991,"la2":30.254,"lo1":-89.0895,"lo2":-89.0444,"dy":0.0017,"dx":0.0017,"nx":28,"ny":28,"refTime":"2025-08-03T09:00:00:Z","depth":0,"parameterNumber":3,"parameterNumberName":"V-component_of_WINDS"},"data":[0,0,0,0,0,0,0,0,0,0,0,0,0,0,0,0,0,0,0,0,0,0,0,0,0,0,0,0,0,0,0,0,0,0,0,0,0,0,0,0,0,0,0,0,0,0,0,0,0,0,0,0,0,0,0,0,0,0,2.7465,2.7464,0,2.7386,2.7385,2.7384,2.7307,2.7306,2.7305,2.7304,2.7219,2.7218,2.7216,0,0,0,0,0,0,0,0,0,0,0,0,0,2.7547,2.7546,2.7465,2.7464,2.7463,2.7386,2.7385,2.7384,2.7307,2.7306,2.7305,2.7303,2.7219,2.7218,2.7216,0,0,0,0,0,0,0,0,0,0,0,0,0,2.7494,2.7546,2.7465,2.7416,2.741,2.7386,2.7385,2.7383,2.7307,2.7306,2.7304,2.7303,2.722,2.7218,2.7216,2.7233,0,0,2.721,2.7209,0,0,0,0,0,0,0,0,2.7497,2.7491,2.7424,2.7419,2.7413,2.7355,2.7382,2.7333,2.7308,2.7346,2.7304,2.7302,2.7265,2.7259,2.7247,2.7229,2.7226,2.721,2.7208,2.7208,2.7207,0,0,0,0,0,0,0,2.7501,2.7494,2.7434,2.7423,2.7416,2.7396,2.7387,2.7373,2.7315,2.7343,2.7337,2.7329,2.7262,2.725,2.7245,2.7224,2.721,2.7208,2.7207,2.7206,2.7215,2.7216,0,0,0,0,0,0,2.7513,2.7498,2.7436,2.7431,2.7453,2.7396,2.7386,2.7375,2.7315,2.7304,2.733,2.7326,2.7254,2.7247,2.7242,2.7257,2.7208,2.7206,2.7205,2.7213,2.7215,2.7216,0,0,0,0,0,0,2.7515,2.7508,2.7439,2.7463,2.7453,2.7396,2.7385,2.7374,2.7362,2.7305,2.7294,2.7329,2.7252,2.7244,2.7236,2.7253,2.7205,2.7203,2.7211,2.7214,2.7216,2.7288,0,0,0,0,0,0,2.7518,2.7509,2.7516,2.7464,2.7452,2.7436,2.7386,2.7374,2.7359,2.7352,2.7301,2.7291,2.7251,2.7239,2.7234,2.7249,2.7201,2.721,2.7212,2.7215,2.7283,2.7292,2.7299,0,0,0,0,0,2.7521,2.7539,2.7517,2.751,2.7459,2.7437,2.743,2.7384,2.7361,2.7366,2.733,2.7293,2.7252,2.7239,2.7232,2.7247,2.7208,2.7212,2.7215,2.728,2.729,2.7299,0,0,0,0,0,0,2.7593,2.7531,2.7506,2.7508,2.7479,2.7424,2.743,2.7397,2.7373,2.7367,2.7311,2.73,2.7297,2.7271,2.7258,2.726,2.7225,2.7227,2.7277,2.7286,2.7294,2.7299,2.72,0,0,0,0,0,2.761,2.7598,2.7544,2.7551,2.7538,2.7487,2.7475,2.7443,2.741,2.7397,2.736,2.7328,2.7308,2.7296,2.7274,2.728,2.7267,2.7287,2.7295,2.7301,2.7303,2.7303,2.7311,2.7227,2.7227,2.7227,0,0,2.7643,2.7608,2.7603,2.7565,2.7538,2.7526,2.7477,2.7466,2.7456,2.7395,2.7384,2.7356,2.7317,2.7315,2.7313,2.7293,2.7324,2.7305,2.7311,2.7309,2.7307,2.7315,2.7322,2.7229,2.7229,2.7229,0,0,2.7697,2.767,2.7672,2.7647,2.7608,2.7574,2.7575,2.7526,2.7505,2.7494,2.7447,2.7434,2.7401,2.7375,2.7357,2.7403,2.7367,2.7397,2.7438,2.7438,2.7445,2.745,2.7465,2.7471,2.74,2.74,2.74,0,2.7743,2.7724,2.7677,2.767,2.7654,2.7599,2.76,2.7577,2.7533,2.7522,2.7502,2.7459,2.7429,2.742,2.7431,2.7419,2.7417,2.7402,2.7448,2.7453,2.7457,2.7471,2.7477,2.7404,2.7403,2.7403,2.7402,0,2.7782,2.777,2.7776,2.7736,2.7721,2.7718,2.7669,2.7659,2.7628,2.7596,2.7585,2.7547,2.7516,2.7512,2.7481,2.7498,2.7488,2.7459,2.7422,2.747,2.7482,2.7487,2.7409,2.7408,2.7407,2.7406,0,0,2.7878,2.7813,2.7816,2.7797,2.775,2.7739,2.7733,2.7705,2.7696,2.7668,2.766,2.7634,2.7607,2.7587,2.7553,2.7554,2.7591,2.7524,2.7522,2.7537,2.7605,2.7627,2.7634,2.7567,2.7568,2.7569,2.7608,0,2.7924,2.7911,2.7869,2.7868,2.7855,2.7803,2.7798,2.7768,2.7738,2.7722,2.7689,2.7671,2.7637,2.7624,2.7623,2.7587,2.7603,2.7583,2.7558,2.7558,2.7568,2.764,2.7662,2.7701,2.7613,2.7613,2.7614,0,2.7974,2.795,2.7949,2.7903,2.7896,2.7892,2.7862,2.7848,2.7813,2.7791,2.7769,2.7732,2.7721,2.7689,2.7673,2.766,2.7648,2.7628,2.7629,2.7623,2.7588,2.7635,2.7713,2.7718,2.7621,2.762,2.762,0,2.8043,2.801,2.8005,2.799,2.7937,2.7935,2.7912,2.7876,2.7861,2.7835,2.7824,2.7797,2.7782,2.7761,2.7717,2.7697,2.7705,2.7669,2.7685,2.7687,2.7688,2.7688,2.7764,2.7683,2.7683,2.7683,2.7682,0,2.8097,2.8098,2.8035,2.8032,2.8031,2.7982,2.7982,2.7954,2.7923,2.7912,2.7865,2.7856,2.7799,2.7782,2.7748,2.7739,2.7733,2.7714,2.7704,2.7717,2.7719,2.7707,2.7703,2.7684,2.7684,2.7683,2.7683,0,2.8173,2.8131,2.8122,2.8072,2.806,2.8061,2.8018,2.8012,2.798,2.7967,2.7961,2.791,2.7888,2.7843,2.7808,2.7785,2.7784,2.7768,2.7797,2.779,2.7809,2.7807,2.7877,2.7884,2.7801,2.7801,2.7802,0,2.8209,2.8209,2.8159,2.815,2.8129,2.8114,2.8099,2.8051,2.8037,2.7997,2.7996,2.7972,2.7949,2.7917,2.7876,2.7849,2.7831,2.7858,2.7827,2.784,2.783,2.783,2.7829,2.7864,2.7865,2.7866,2.7867,0,2.8278,2.8257,2.8239,2.8213,2.8197,2.8174,2.8148,2.8143,2.8088,2.8075,2.8053,2.8036,2.8002,2.7977,2.7945,2.7919,2.7884,2.7878,2.788,2.7892,2.7908,2.7899,2.7814,2.7876,2.7875,2.7874,2.7874,2.7873,2.8334,2.8331,2.8296,2.8276,2.8252,2.823,2.8222,2.8189,2.8171,2.814,2.8112,2.8093,2.8057,2.801,2.7987,2.797,2.7953,2.7956,2.7957,2.7958,2.7963,2.7912,2.7964,2.7964,2.7964,2.7964,2.7963,0,2.8399,2.8374,2.8357,2.8323,2.8308,2.8278,2.8248,2.8236,2.822,2.8191,2.817,2.8145,2.8121,2.8078,2.8051,2.8045,2.8028,2.8039,2.8039,2.8033,2.7981,2.7981,2.8054,2.8054,2.8054,2.8054,2.8054,2.8054,2.8431,2.8424,2.84,2.838,2.8355,2.8337,2.8322,2.83,2.8277,2.8251,2.8232,2.8205,2.8169,2.8139,2.8115,2.8103,2.8094,2.8111,2.8094,2.8045,2.8037,2.8029,2.8029,2.811,2.811,2.8147,2.8147,2.8147]}]]